map of CJA home
Great Circle Mapper logo
CJA - Airport
Location
City:  Cajamarca, Perú
Name:Major General FAP Armando Revoredo Iglesias
ICAO / IATA:SPJR / CJA

Details
Type:Airport (Aerodrome, Airfield)
Latitude:7°08'21"S (-7.139182)
Longitude:78°29'22"W (-78.489399)
Datum:WGS 1984
Elevation:8781 ft (2676 m)
Variation:1.6°W (WMM2015 magnetic declination)
Runways:1
Longest:8202 × 148 ft (2500 × 45 m), paved

Time
Time Zone:UTC-5
Local Time:

Weather
METAR:SPJR 182300Z VRB02KT 9999 SCT026 BKN046 17/11 Q1025 RMK BCFG/S BIRD HAZARD RWY 16/34 PP000
TAF:SPJR 181630Z 1818/1918 VRB03KT 9999 FEW043 SCT090 TX21/1819Z TN10/1911Z
TEMPO 1819/1823 SCT043 BKN080

Related Locations
Nearby:
Farthest:PAN: 12426 mi / 19997 km
Pattani, TH

Find:

   beyond  
but within

Other Information
Maps:
NOTAMs:
Links:
Sources:

  
flag of Perú   

Sectional Chart

Flight Planning
at skyvector.com

Satellite Image

Google Maps Satellite View

 

Copyright © 2004-2014 Karl L. Swartz. All rights reserved.
The Great Circle Mapper name and logo are trademarks of the Great Circle Mapper.
All other trademarks mentioned herein belong to their respective owners.
Please see credits for attibutions and further copyright information.

  Follow gcmap on Facebook Follow gcmap on Twitter

hCard Microformat

Geo Microformat